Wetterdaten: Woche 04.02.19 - 10.02.19 (KW6)
Datum Zeit Temperatur Luftfeuchte Luftdruck Niederschlag Windrichtung Sonnenschein Solar Wind
04.02.2019 00:00 -1,3 C 97 % 1026,7 hPa 0,0 l/m N 0,00 h 0 W/m 0,0 km/h (0 Bft)
04.02.2019 01:00 -1,6 C 97 % 1027,2 hPa 0,0 l/m N 0,00 h 0 W/m 0,0 km/h (0 Bft)
04.02.2019 02:00 -1,8 C 97 % 1027,6 hPa 0,0 l/m N 0,00 h 0 W/m 0,0 km/h (0 Bft)
04.02.2019 03:00 -2,0 C 97 % 1027,7 hPa 0,0 l/m N 0,00 h 0 W/m 0,0 km/h (0 Bft)
04.02.2019 04:00 -2,9 C 97 % 1028,0 hPa 0,0 l/m N 0,00 h 0 W/m 0,0 km/h (0 Bft)
04.02.2019 05:00 -4,5 C 96 % 1028,6 hPa 0,0 l/m N 0,00 h 0 W/m 0,0 km/h (0 Bft)
04.02.2019 06:00 -6,0 C 96 % 1029,0 hPa 0,0 l/m N 0,00 h 0 W/m 0,0 km/h (0 Bft)
04.02.2019 07:00 -7,1 C 96 % 1029,3 hPa 0,0 l/m N 0,00 h 5 W/m 0,0 km/h (0 Bft)
04.02.2019 08:00 -7,3 C 96 % 1029,7 hPa 0,0 l/m N 0,25 h 56 W/m 0,0 km/h (0 Bft)
04.02.2019 09:00 -6,4 C 96 % 1029,6 hPa 0,0 l/m N 1,00 h 317 W/m 0,0 km/h (0 Bft)
04.02.2019 10:00 -4,4 C 97 % 1029,6 hPa 0,0 l/m N-NW 1,00 h 443 W/m 1,1 km/h (0 Bft)
04.02.2019 11:00 -1,6 C 98 % 1029,4 hPa 0,0 l/m N-NW 1,00 h 445 W/m 3,2 km/h (1 Bft)
04.02.2019 12:00 0,9 C 96 % 1029,1 hPa 0,0 l/m N-NW 1,00 h 445 W/m 7,1 km/h (2 Bft)
04.02.2019 13:00 1,0 C 88 % 1028,2 hPa 0,0 l/m O-NO 1,00 h 420 W/m 10,1 km/h (2 Bft)
04.02.2019 14:00 1,1 C 86 % 1027,4 hPa 0,0 l/m O 1,00 h 312 W/m 12,2 km/h (2 Bft)
04.02.2019 15:00 0,8 C 86 % 1027,1 hPa 0,0 l/m O-SO 0,92 h 196 W/m 10,1 km/h (2 Bft)
04.02.2019 16:00 -0,0 C 87 % 1027,2 hPa 0,0 l/m O-SO 0,00 h 49 W/m 4,9 km/h (1 Bft)
04.02.2019 17:00 -0,9 C 89 % 1027,3 hPa 0,0 l/m O-SO 0,00 h 8 W/m 1,7 km/h (1 Bft)
04.02.2019 18:00 -2,3 C 88 % 1027,7 hPa 0,0 l/m N 0,00 h 0 W/m 0,0 km/h (0 Bft)
04.02.2019 19:00 -3,4 C 89 % 1027,8 hPa 0,0 l/m N 0,00 h 0 W/m 0,0 km/h (0 Bft)
04.02.2019 20:00 -4,3 C 90 % 1027,8 hPa 0,0 l/m N 0,00 h 0 W/m 0,0 km/h (0 Bft)
04.02.2019 21:00 -5,0 C 91 % 1027,9 hPa 0,0 l/m N 0,00 h 0 W/m 0,0 km/h (0 Bft)
04.02.2019 22:00 -5,8 C 92 % 1028,3 hPa 0,0 l/m N 0,00 h 0 W/m 0,0 km/h (0 Bft)
04.02.2019 23:00 -6,7 C 92 % 1028,1 hPa 0,0 l/m N 0,00 h 0 W/m 0,0 km/h (0 Bft)
05.02.2019 00:00 -7,1 C 92 % 1028,2 hPa 0,0 l/m N 0,00 h 0 W/m 0,0 km/h (0 Bft)
05.02.2019 01:00 -7,3 C 93 % 1028,2 hPa 0,0 l/m N 0,00 h 0 W/m 0,0 km/h (0 Bft)
05.02.2019 02:00 -7,8 C 93 % 1028,1 hPa 0,0 l/m N 0,00 h 0 W/m 0,0 km/h (0 Bft)
05.02.2019 03:00 -8,1 C 93 % 1028,3 hPa 0,0 l/m N 0,00 h 0 W/m 0,0 km/h (0 Bft)
05.02.2019 04:00 -8,2 C 94 % 1028,2 hPa 0,0 l/m N 0,00 h 0 W/m 0,0 km/h (0 Bft)
05.02.2019 05:00 -7,1 C 95 % 1028,3 hPa 0,0 l/m N 0,00 h 0 W/m 0,0 km/h (0 Bft)
05.02.2019 06:00 -6,1 C 95 % 1028,4 hPa 0,0 l/m N 0,00 h 0 W/m 0,0 km/h (0 Bft)
05.02.2019 07:00 -5,1 C 96 % 1029,0 hPa 0,0 l/m N 0,00 h 5 W/m 0,0 km/h (0 Bft)
05.02.2019 08:00 -4,0 C 96 % 1029,6 hPa 0,0 l/m O-SO 0,00 h 29 W/m 1,9 km/h (1 Bft)
05.02.2019 09:00 -3,3 C 96 % 1030,1 hPa 0,0 l/m O-SO 0,00 h 89 W/m 3,7 km/h (1 Bft)
05.02.2019 10:00 -3,0 C 96 % 1030,2 hPa 0,0 l/m O-SO 0,00 h 143 W/m 2,9 km/h (1 Bft)
05.02.2019 11:00 -2,7 C 95 % 1030,4 hPa 0,0 l/m O-SO 0,00 h 198 W/m 6,3 km/h (2 Bft)
05.02.2019 12:00 -2,3 C 95 % 1030,1 hPa 0,0 l/m O-SO 0,00 h 219 W/m 6,7 km/h (2 Bft)
05.02.2019 13:00 -1,9 C 94 % 1029,7 hPa 0,0 l/m N 0,00 h 208 W/m 0,9 km/h (0 Bft)
05.02.2019 14:00 -1,3 C 92 % 1029,6 hPa 0,0 l/m O-SO 0,75 h 226 W/m 3,3 km/h (1 Bft)
05.02.2019 15:00 -1,3 C 91 % 1029,8 hPa 0,0 l/m N 0,83 h 177 W/m 0,9 km/h (0 Bft)
05.02.2019 16:00 -1,8 C 92 % 1030,0 hPa 0,0 l/m O-SO 0,00 h 58 W/m 1,9 km/h (1 Bft)
05.02.2019 17:00 -2,5 C 93 % 1030,1 hPa 0,0 l/m N 0,08 h 10 W/m 0,1 km/h (0 Bft)
05.02.2019 18:00 -3,1 C 94 % 1030,4 hPa 0,0 l/m O-SO 0,00 h 0 W/m 1,7 km/h (1 Bft)
05.02.2019 19:00 -3,9 C 94 % 1030,4 hPa 0,0 l/m N 0,00 h 0 W/m 0,4 km/h (0 Bft)
05.02.2019 20:00 -4,4 C 95 % 1030,3 hPa 0,0 l/m N 0,00 h 0 W/m 0,1 km/h (0 Bft)
05.02.2019 21:00 -5,1 C 95 % 1030,5 hPa 0,0 l/m N 0,00 h 0 W/m 0,8 km/h (0 Bft)
05.02.2019 22:00 -5,7 C 95 % 1030,5 hPa 0,0 l/m N 0,00 h 0 W/m 0,4 km/h (0 Bft)
05.02.2019 23:00 -6,1 C 96 % 1030,4 hPa 0,0 l/m N 0,00 h 0 W/m 0,0 km/h (0 Bft)
06.02.2019 00:00 -6,4 C 96 % 1030,1 hPa 0,0 l/m O-SO 0,00 h 0 W/m 1,7 km/h (1 Bft)
06.02.2019 01:00 -7,0 C 96 % 1030,1 hPa 0,0 l/m N 0,00 h 0 W/m 0,4 km/h (0 Bft)
06.02.2019 02:00 -7,6 C 96 % 1029,9 hPa 0,0 l/m N 0,00 h 0 W/m 0,0 km/h (0 Bft)
06.02.2019 03:00 -8,0 C 96 % 1029,6 hPa 0,0 l/m N 0,00 h 0 W/m 0,0 km/h (0 Bft)
06.02.2019 04:00 -8,4 C 95 % 1029,5 hPa 0,0 l/m N 0,00 h 0 W/m 0,0 km/h (0 Bft)
06.02.2019 05:00 -8,6 C 96 % 1029,3 hPa 0,0 l/m N 0,00 h 0 W/m 0,0 km/h (0 Bft)
06.02.2019 06:00 -8,6 C 96 % 1029,3 hPa 0,0 l/m N 0,00 h 0 W/m 0,0 km/h (0 Bft)
06.02.2019 07:00 -8,7 C 95 % 1029,6 hPa 0,0 l/m N 0,08 h 7 W/m 0,0 km/h (0 Bft)
06.02.2019 08:00 -8,8 C 95 % 1029,8 hPa 0,0 l/m N 0,00 h 38 W/m 0,0 km/h (0 Bft)
06.02.2019 09:00 -7,6 C 96 % 1030,0 hPa 0,0 l/m N 0,00 h 107 W/m 0,0 km/h (0 Bft)
06.02.2019 10:00 -6,6 C 96 % 1029,8 hPa 0,0 l/m N 0,00 h 168 W/m 0,0 km/h (0 Bft)
06.02.2019 11:00 -5,6 C 97 % 1029,4 hPa 0,0 l/m N 0,92 h 260 W/m 0,0 km/h (0 Bft)
06.02.2019 12:00 -4,4 C 97 % 1028,7 hPa 0,0 l/m N 1,00 h 307 W/m 0,5 km/h (0 Bft)
06.02.2019 13:00 -3,1 C 96 % 1028,0 hPa 0,0 l/m N 1,00 h 330 W/m 0,0 km/h (0 Bft)
06.02.2019 14:00 -2,4 C 94 % 1027,0 hPa 0,0 l/m O-SO 1,00 h 299 W/m 1,1 km/h (0 Bft)
06.02.2019 15:00 -2,0 C 93 % 1026,3 hPa 0,0 l/m N 1,00 h 194 W/m 0,0 km/h (0 Bft)
06.02.2019 16:00 -2,0 C 92 % 1026,0 hPa 0,0 l/m N 0,42 h 73 W/m 0,0 km/h (0 Bft)
06.02.2019 17:00 -3,4 C 93 % 1025,5 hPa 0,0 l/m N 0,08 h 14 W/m 0,0 km/h (0 Bft)
06.02.2019 18:00 -4,2 C 93 % 1025,3 hPa 0,0 l/m N 0,00 h 0 W/m 0,0 km/h (0 Bft)
06.02.2019 19:00 -5,3 C 93 % 1025,0 hPa 0,0 l/m N 0,00 h 0 W/m 0,0 km/h (0 Bft)
06.02.2019 20:00 -6,2 C 93 % 1024,6 hPa 0,0 l/m N 0,00 h 0 W/m 0,0 km/h (0 Bft)
06.02.2019 21:00 -5,8 C 94 % 1024,0 hPa 0,0 l/m N 0,00 h 0 W/m 0,0 km/h (0 Bft)
06.02.2019 22:00 -5,2 C 95 % 1023,5 hPa 0,0 l/m N 0,00 h 0 W/m 0,4 km/h (0 Bft)
06.02.2019 23:00 -4,2 C 96 % 1023,0 hPa 0,0 l/m S-SO 0,00 h 0 W/m 6,3 km/h (2 Bft)
07.02.2019 00:00 -3,7 C 96 % 1022,5 hPa 0,0 l/m SW 0,00 h 0 W/m 9,8 km/h (2 Bft)
07.02.2019 01:00 -3,7 C 97 % 1021,9 hPa 0,0 l/m SW 0,00 h 0 W/m 11,7 km/h (2 Bft)
07.02.2019 02:00 -3,9 C 97 % 1021,3 hPa 0,0 l/m SW 0,00 h 0 W/m 11,3 km/h (2 Bft)
07.02.2019 03:00 -3,9 C 97 % 1020,6 hPa 0,0 l/m SW 0,00 h 0 W/m 8,9 km/h (2 Bft)
07.02.2019 04:00 -4,3 C 97 % 1020,0 hPa 0,0 l/m SW 0,00 h 0 W/m 11,4 km/h (2 Bft)
07.02.2019 05:00 -4,4 C 97 % 1019,7 hPa 0,0 l/m SW 0,00 h 0 W/m 7,8 km/h (2 Bft)
07.02.2019 06:00 -4,4 C 97 % 1019,5 hPa 0,0 l/m SW 0,00 h 0 W/m 10,1 km/h (2 Bft)
07.02.2019 07:00 -4,0 C 97 % 1019,3 hPa 0,0 l/m S-SW 0,00 h 8 W/m 8,4 km/h (2 Bft)
07.02.2019 08:00 -3,7 C 98 % 1019,2 hPa 0,0 l/m S 0,00 h 54 W/m 5,6 km/h (1 Bft)
07.02.2019 09:00 -3,0 C 98 % 1019,0 hPa 0,0 l/m S 0,00 h 115 W/m 7,1 km/h (2 Bft)
07.02.2019 10:00 -2,1 C 97 % 1018,6 hPa 0,0 l/m S 0,83 h 237 W/m 9,4 km/h (2 Bft)
07.02.2019 11:00 -1,3 C 96 % 1018,4 hPa 0,0 l/m S-SO 0,42 h 214 W/m 8,8 km/h (2 Bft)
07.02.2019 12:00 -0,7 C 95 % 1017,8 hPa 0,0 l/m S-SW 0,08 h 211 W/m 10,6 km/h (2 Bft)
07.02.2019 13:00 -0,2 C 95 % 1017,4 hPa 1,0 l/m S-SW 0,00 h 99 W/m 7,4 km/h (2 Bft)
07.02.2019 14:00 -0,0 C 96 % 1017,3 hPa 1,4 l/m S-SW 0,00 h 87 W/m 11,5 km/h (2 Bft)
07.02.2019 15:00 0,4 C 97 % 1017,5 hPa 1,4 l/m SW 0,00 h 53 W/m 9,6 km/h (2 Bft)
07.02.2019 16:00 0,8 C 98 % 1017,5 hPa 0,8 l/m SW 0,00 h 44 W/m 7,7 km/h (2 Bft)
07.02.2019 17:00 0,7 C 98 % 1017,6 hPa 0,6 l/m SW 0,00 h 6 W/m 10,1 km/h (2 Bft)
07.02.2019 18:00 1,2 C 98 % 1018,0 hPa 0,6 l/m SW 0,00 h 0 W/m 8,7 km/h (2 Bft)
07.02.2019 19:00 0,8 C 98 % 1018,5 hPa 0,0 l/m SW 0,00 h 0 W/m 4,8 km/h (1 Bft)
07.02.2019 20:00 1,8 C 99 % 1018,5 hPa 0,4 l/m SW 0,00 h 0 W/m 13,0 km/h (3 Bft)
07.02.2019 21:00 1,4 C 98 % 1019,3 hPa 0,0 l/m SW 0,00 h 0 W/m 5,1 km/h (1 Bft)
07.02.2019 22:00 1,1 C 98 % 1020,2 hPa 0,0 l/m SW 0,00 h 0 W/m 5,5 km/h (1 Bft)
07.02.2019 23:00 1,1 C 98 % 1021,1 hPa 0,0 l/m SW 0,00 h 0 W/m 14,6 km/h (3 Bft)
08.02.2019 00:00 1,1 C 99 % 1021,3 hPa 0,0 l/m SW 0,00 h 0 W/m 13,7 km/h (3 Bft)
08.02.2019 01:00 1,3 C 99 % 1021,3 hPa 0,0 l/m W-SW 0,00 h 0 W/m 15,2 km/h (3 Bft)
08.02.2019 02:00 1,4 C 99 % 1021,4 hPa 0,0 l/m SW 0,00 h 0 W/m 7,9 km/h (2 Bft)
08.02.2019 03:00 1,0 C 99 % 1021,5 hPa 0,0 l/m SW 0,00 h 0 W/m 5,2 km/h (1 Bft)
08.02.2019 04:00 1,0 C 99 % 1021,5 hPa 0,0 l/m SW 0,00 h 0 W/m 10,2 km/h (2 Bft)
08.02.2019 05:00 1,1 C 99 % 1021,4 hPa 0,0 l/m SW 0,00 h 0 W/m 13,4 km/h (3 Bft)
08.02.2019 06:00 1,1 C 99 % 1021,2 hPa 0,0 l/m SW 0,00 h 0 W/m 14,2 km/h (3 Bft)
08.02.2019 07:00 0,5 C 98 % 1021,1 hPa 0,0 l/m SW 0,08 h 16 W/m 9,1 km/h (2 Bft)
08.02.2019 08:00 -0,4 C 98 % 1021,3 hPa 0,0 l/m SW 1,00 h 101 W/m 5,7 km/h (1 Bft)
08.02.2019 09:00 0,8 C 99 % 1021,3 hPa 0,0 l/m SW 0,92 h 227 W/m 7,9 km/h (2 Bft)
08.02.2019 10:00 2,3 C 96 % 1021,1 hPa 0,0 l/m S-SW 0,92 h 301 W/m 9,5 km/h (2 Bft)
08.02.2019 11:00 4,0 C 89 % 1020,5 hPa 0,0 l/m S-SW 1,00 h 415 W/m 11,0 km/h (2 Bft)
08.02.2019 12:00 5,4 C 81 % 1019,7 hPa 0,0 l/m S-SW 1,00 h 443 W/m 11,2 km/h (2 Bft)
08.02.2019 13:00 6,1 C 75 % 1018,7 hPa 0,0 l/m SW 1,00 h 407 W/m 12,2 km/h (2 Bft)
08.02.2019 14:00 6,5 C 71 % 1017,7 hPa 0,0 l/m SW 1,00 h 305 W/m 8,8 km/h (2 Bft)
08.02.2019 15:00 6,2 C 71 % 1016,9 hPa 0,0 l/m SW 0,92 h 186 W/m 7,4 km/h (2 Bft)
08.02.2019 16:00 5,8 C 69 % 1016,3 hPa 0,0 l/m SW 0,83 h 92 W/m 6,0 km/h (2 Bft)
08.02.2019 17:00 4,1 C 75 % 1015,5 hPa 0,0 l/m SW 0,17 h 15 W/m 1,1 km/h (0 Bft)
08.02.2019 18:00 2,6 C 80 % 1015,2 hPa 0,0 l/m N 0,00 h 0 W/m 0,0 km/h (0 Bft)
08.02.2019 19:00 1,3 C 83 % 1014,9 hPa 0,0 l/m N 0,00 h 0 W/m 0,0 km/h (0 Bft)
08.02.2019 20:00 0,6 C 85 % 1014,8 hPa 0,0 l/m N 0,00 h 0 W/m 0,0 km/h (0 Bft)
08.02.2019 21:00 -0,3 C 87 % 1014,7 hPa 0,0 l/m N 0,00 h 0 W/m 0,0 km/h (0 Bft)
08.02.2019 22:00 -0,9 C 89 % 1014,0 hPa 0,0 l/m SW 0,00 h 0 W/m 1,7 km/h (1 Bft)
08.02.2019 23:00 -0,4 C 93 % 1013,3 hPa 0,0 l/m SW 0,00 h 0 W/m 9,3 km/h (2 Bft)
09.02.2019 00:00 0,6 C 93 % 1013,0 hPa 0,0 l/m SW 0,00 h 0 W/m 13,2 km/h (3 Bft)
09.02.2019 01:00 1,0 C 89 % 1012,7 hPa 0,0 l/m SW 0,00 h 0 W/m 11,7 km/h (2 Bft)
09.02.2019 02:00 -0,1 C 91 % 1012,3 hPa 0,0 l/m SW 0,00 h 0 W/m 6,7 km/h (2 Bft)
09.02.2019 03:00 -0,8 C 92 % 1012,0 hPa 0,0 l/m SW 0,00 h 0 W/m 7,0 km/h (2 Bft)
09.02.2019 04:00 -0,6 C 94 % 1011,4 hPa 0,0 l/m SW 0,00 h 0 W/m 9,9 km/h (2 Bft)
09.02.2019 05:00 1,7 C 90 % 1011,9 hPa 0,0 l/m SW 0,00 h 0 W/m 15,3 km/h (3 Bft)
09.02.2019 06:00 4,1 C 80 % 1012,4 hPa 0,0 l/m W-SW 0,00 h 0 W/m 21,6 km/h (4 Bft)
09.02.2019 07:00 4,3 C 83 % 1013,2 hPa 0,0 l/m W-SW 0,17 h 11 W/m 21,7 km/h (4 Bft)
09.02.2019 08:00 4,3 C 86 % 1013,6 hPa 0,0 l/m SW 0,33 h 67 W/m 17,6 km/h (3 Bft)
09.02.2019 09:00 5,6 C 85 % 1014,0 hPa 0,0 l/m W-SW 0,42 h 131 W/m 20,0 km/h (4 Bft)
09.02.2019 10:00 6,7 C 79 % 1014,5 hPa 0,0 l/m SW 0,42 h 222 W/m 25,9 km/h (4 Bft)
09.02.2019 11:00 7,3 C 75 % 1015,0 hPa 0,0 l/m W-SW 0,00 h 173 W/m 25,1 km/h (4 Bft)
09.02.2019 12:00 8,1 C 71 % 1015,0 hPa 0,0 l/m W 0,75 h 325 W/m 21,6 km/h (4 Bft)
09.02.2019 13:00 8,7 C 66 % 1014,7 hPa 0,0 l/m W-SW 0,33 h 237 W/m 22,1 km/h (4 Bft)
09.02.2019 14:00 9,3 C 64 % 1014,5 hPa 0,0 l/m W 1,00 h 284 W/m 16,8 km/h (3 Bft)
09.02.2019 15:00 9,0 C 60 % 1014,7 hPa 0,0 l/m W-SW 0,50 h 152 W/m 20,6 km/h (4 Bft)
09.02.2019 16:00 8,2 C 62 % 1014,9 hPa 0,0 l/m W-SW 0,00 h 68 W/m 16,6 km/h (3 Bft)
09.02.2019 17:00 7,3 C 69 % 1015,0 hPa 0,0 l/m W-SW 0,00 h 15 W/m 18,0 km/h (3 Bft)
09.02.2019 18:00 6,5 C 79 % 1015,3 hPa 0,0 l/m W-SW 0,00 h 0 W/m 19,0 km/h (3 Bft)
09.02.2019 19:00 5,8 C 83 % 1015,6 hPa 0,0 l/m SW 0,00 h 0 W/m 12,2 km/h (2 Bft)
09.02.2019 20:00 4,8 C 86 % 1015,5 hPa 0,0 l/m W-SW 0,00 h 0 W/m 11,9 km/h (2 Bft)
09.02.2019 21:00 5,3 C 86 % 1015,0 hPa 0,0 l/m W-SW 0,00 h 0 W/m 14,9 km/h (3 Bft)
09.02.2019 22:00 5,4 C 84 % 1014,6 hPa 0,0 l/m SW 0,00 h 0 W/m 10,8 km/h (2 Bft)
09.02.2019 23:00 5,3 C 83 % 1014,2 hPa 0,0 l/m SW 0,00 h 0 W/m 11,6 km/h (2 Bft)
10.02.2019 00:00 5,5 C 82 % 1013,4 hPa 0,0 l/m W-SW 0,00 h 0 W/m 5,2 km/h (1 Bft)
10.02.2019 01:00 4,2 C 84 % 1012,9 hPa 0,0 l/m W-SW 0,00 h 0 W/m 0,5 km/h (0 Bft)
10.02.2019 02:00 3,4 C 88 % 1012,3 hPa 0,0 l/m W-SW 0,00 h 0 W/m 4,8 km/h (1 Bft)
10.02.2019 03:00 3,5 C 89 % 1011,1 hPa 0,0 l/m W-SW 0,00 h 0 W/m 4,2 km/h (1 Bft)
10.02.2019 04:00 3,1 C 90 % 1009,8 hPa 0,0 l/m W-SW 0,00 h 0 W/m 5,7 km/h (1 Bft)
10.02.2019 05:00 3,2 C 91 % 1008,8 hPa 0,0 l/m W-SW 0,00 h 0 W/m 2,7 km/h (1 Bft)
10.02.2019 06:00 3,0 C 89 % 1007,7 hPa 0,0 l/m SW 0,00 h 0 W/m 2,4 km/h (1 Bft)
10.02.2019 07:00 4,1 C 83 % 1007,2 hPa 0,0 l/m SW 0,00 h 11 W/m 10,5 km/h (2 Bft)
10.02.2019 08:00 4,2 C 81 % 1006,6 hPa 0,0 l/m SW 0,00 h 39 W/m 11,1 km/h (2 Bft)
10.02.2019 09:00 4,6 C 80 % 1005,4 hPa 0,0 l/m SW 0,00 h 88 W/m 8,2 km/h (2 Bft)
10.02.2019 10:00 7,0 C 70 % 1004,3 hPa 0,0 l/m SW 0,58 h 213 W/m 19,3 km/h (3 Bft)
10.02.2019 11:00 8,0 C 67 % 1003,1 hPa 0,0 l/m SW 0,17 h 197 W/m 14,5 km/h (3 Bft)
10.02.2019 12:00 8,5 C 66 % 1001,5 hPa 0,0 l/m SW 0,25 h 243 W/m 11,7 km/h (2 Bft)
10.02.2019 13:00 10,4 C 55 % 999,7 hPa 0,0 l/m SW 0,42 h 222 W/m 16,6 km/h (3 Bft)
10.02.2019 14:00 10,8 C 53 % 999,7 hPa 0,0 l/m W-SW 0,00 h 114 W/m 34,5 km/h (5 Bft)
10.02.2019 15:00 8,4 C 74 % 999,6 hPa 0,2 l/m W 0,00 h 53 W/m 29,1 km/h (5 Bft)
10.02.2019 16:00 7,7 C 80 % 998,5 hPa 1,0 l/m W 0,00 h 14 W/m 29,6 km/h (5 Bft)
10.02.2019 17:00 6,6 C 88 % 999,5 hPa 3,2 l/m W 0,00 h 7 W/m 29,1 km/h (5 Bft)
10.02.2019 18:00 5,2 C 91 % 1001,2 hPa 0,0 l/m W-SW 0,00 h 0 W/m 29,1 km/h (5 Bft)
10.02.2019 19:00 4,5 C 90 % 1003,4 hPa 0,0 l/m W-SW 0,00 h 0 W/m 24,3 km/h (4 Bft)
10.02.2019 20:00 4,1 C 87 % 1005,0 hPa 0,0 l/m W 0,00 h 0 W/m 30,4 km/h (5 Bft)
10.02.2019 21:00 3,4 C 86 % 1005,8 hPa 0,2 l/m W-SW 0,00 h 0 W/m 29,1 km/h (5 Bft)
10.02.2019 22:00 3,1 C 88 % 1005,9 hPa 0,0 l/m W-SW 0,00 h 0 W/m 33,1 km/h (5 Bft)
10.02.2019 23:00 3,0 C 88 % 1005,9 hPa 0,0 l/m W-SW 0,00 h 0 W/m 29,6 km/h (5 Bft)
Min-Datum _ 06.02.19 10.02.19 10.02.19 - - - - 04.02.19
_ Min-Zeit 07:50 14:15 16:05 - - - - 00:00
Minimum _ -8,9 C 50 % 998,2 hPa - - - - 0,0 km/h (0 Bft)
Max-Datum _ 10.02.19 08.02.19 05.02.19 10.02.19 - 04.02.19 09.02.19 10.02.19
_ Max-Zeit 13:50 04:00 11:20 17:40 - 08:45 12:50 14:40
Maximum _ 11,1 C 100 % 1030,6 hPa 3,2 l/m - 0,08 h 554 W/m 56,3 km/h
W-SW (7 Bft)
Durchschnitt _ -0,3 C 90 % 1020,4 hPa #10,8 l/m SW #29:50 h 161 W/m 7,7 km/h (2 Bft)